Location: Unspecified
(45.9570°N, 0.0000°E)
Time: 11:41:41
(UTC+00:00)

MOZHAYETS 4 - Visible Passes

Search period start: 04 April 2026 00:00
Search period end: 14 April 2026 00:00
Orbit: 642 x 659 km, 98.3° (Epoch: 29 March)

Date Brightness Start Highest point End Pass type
(mag) Time Alt. Az. Time Alt. Az. Time Alt. Az.
4 Apr 9.0 04:24:49 10° SE 04:29:04 43° ENE 04:33:20 10° N visible
4 Apr 10.9 19:28:13 10° NNW 19:30:57 16° WNW 19:33:41 10° W visible
5 Apr 11.3 03:18:44 10° ENE 03:19:44 11° NE 03:20:43 10° NE visible
5 Apr 7.9 04:51:08 10° SSE 04:55:37 80° ENE 05:00:08 10° NNW visible
6 Apr 10.7 03:43:00 10° ESE 03:46:01 18° ENE 03:49:03 10° NNE visible
7 Apr 9.8 04:08:31 10° SE 04:12:25 30° ENE 04:16:20 10° N visible
7 Apr 10.6 19:10:55 10° NNW 19:14:23 23° WNW 19:17:50 10° WSW visible
8 Apr 8.6 04:34:33 10° SSE 04:38:55 54° ENE 04:43:17 10° N visible
8 Apr 11.1 19:38:32 10° NNW 19:40:42 14° WNW 19:42:53 10° W visible
9 Apr 11.1 03:27:28 10° E 03:29:28 13° ENE 03:31:28 10° NNE visible
10 Apr 10.5 03:52:24 10° ESE 03:55:48 22° ENE 03:59:10 10° NNE visible
11 Apr 9.5 04:18:07 10° SE 04:22:13 36° ENE 04:26:19 10° N visible
11 Apr 10.8 19:21:00 10° NNW 19:24:08 19° WNW 19:27:14 10° WSW visible
12 Apr 8.2 04:44:18 10° SSE 04:48:43 66° ENE 04:53:11 10° N visible
12 Apr 11.4 19:49:05 10° NW 19:50:25 11° WNW 19:51:44 10° WNW visible
13 Apr 11.0 03:36:35 10° E 03:39:11 15° ENE 03:41:46 10° NNE visible
